Meteo Giornale » Osservazioni meteo Italia » Lamezia Terme

ore: 23:50 - Osservazioni Meteo Lamezia Terme
Lat. 38° 54' N Lon. 16° 15' E Alt. 15 metri s.l.m.

poco_nuvoloso Europe/Rome

17 °C

Poco Nuvoloso

Temp. 24 Ore

12 °C

22 °C

Est

29.6 Km/h

Dew point 13 °C

Umidità 77 %

Visibilità  10 Km

Il sole sorge alle ore 06:01

Il sole tramonta alle ore 19:44

Data e Ora Cielo e Fenomeni T °C DP °C Um. % Pres. hPa Vis. km Vento km/h
Ieri h: 23:50 poco_nuvoloso Poco Nuvoloso 17 13 77 1016 10 E 29.6
Ieri h: 22:50 poco_nuvoloso Poco Nuvoloso 17 13 77 1016 10 E 29.6
Ieri h: 21:50 poco_nuvoloso Poco Nuvoloso 17 13 77 1016 10 E 31.5
Ieri h: 20:50 poco_nuvoloso Poco Nuvoloso 17 13 77 1015 10 E 33.3
Ieri h: 19:50 poco_nuvoloso Poco Nuvoloso 17 14 82 1015 10 E 29.6
Ieri h: 18:50 poco_nuvoloso Poco Nuvoloso 18 14 77 1015 10 E/NE 31.5
Ieri h: 17:50 poco_nuvoloso Poco Nuvoloso 20 14 68 1015 10 E 33.3
Ieri h: 16:50 poco_nuvoloso Poco Nuvoloso 20 14 68 1015 10 E 35.2
Ieri h: 15:50 poco_nuvoloso Poco Nuvoloso 21 13 60 1015 10 E 35.2
Ieri h: 14:50 poco_nuvoloso Poco Nuvoloso 22 14 60 1015 10 E 33.3
Ieri h: 13:50 poco_nuvoloso Poco Nuvoloso 22 13 56 1016 10 E 27.8
Ieri h: 12:50 sereno Sereno 21 13 60 1016 10 E 31.5
Ieri h: 11:50 sereno Sereno 20 12 59 1017 10 E 33.3
Ieri h: 09:50 sereno Sereno 18 12 67 1017 10 E 31.5
Ieri h: 08:50 sereno Sereno 17 12 72 1016 10 E 33.3
Ieri h: 07:50 sereno Sereno 16 11 72 1016 10 E 31.5
Ieri h: 06:50 sereno Sereno 14 11 82 1016 10 E 25.9
Ieri h: 05:50 poco_nuvoloso Poco Nuvoloso 14 11 82 1016 10 E 22.2
Ieri h: 04:50 poco_nuvoloso Poco Nuvoloso 13 11 87 1016 10 E 22.2
Ieri h: 03:50 poco_nuvoloso Poco Nuvoloso 12 10 87 1016 10 E 16.7
Ieri h: 02:50 poco_nuvoloso Poco Nuvoloso 13 11 87 1016 10 E 18.5
Ieri h: 01:50 poco_nuvoloso Poco Nuvoloso 14 10 76 1016 10 E/NE 24